Main page
METAR-TAF:

METAR-TAF

Airports :

Gaines County Airport

Seminole, Texas, United States

latitude: 32-40-31N, longitude: 102-39-09W, elevation: 3313 ft

Current weather observation

The report was made 12 minutes ago, at 18:55 UTC
Wind 23 mph from the West with gusts up to 35 mph
Temperature 64°F
Humidity 30%
Pressure 29.85 in. Hg
Visibility: 10 miles
Clear sky

METAR: KGNC 181855Z AUTO 26020G30KT 10SM CLR 18/00 A2985 RMK AO2 T01780003

Time: 13:07 (19:07 UTC)


TAF: missing

Weather observations and forecasts of more than 4000 airports (METAR and TAF reports).

The available stations are represented by yellow and red dots on the map.

Hover mouse over dot to see the name of the station.

Then click to see weather observations and forecasts.

To change the map : click on the green buttons with a black cross to zoom in, on the green button with a dash to zoom out, or on the green arrows for adjacent maps.


METAR-TAF: